Location: Baix
(44.7118°N, 4.7648°E)
Time: 09:11:35
(UTC+00:00)

A-11 Canister half - Pass Details

Date: 27 November 2020
Orbit: 1517 x 1683 km, 47.2° (Epoch: 22 January)

Event Time Altitude Azimuth Distance (km) Brightness Sun altitude
Rises 19:31:52 0° 292° (WNW) 4,940 12.6 -36.5°
Reaches altitude 10° 19:35:55 10° 279° (W) 3,948 11.9 -37.2°
Maximum altitude 19:43:07 23° 233° (SW) 3,037 10.8 -38.5°
Drops below altitude 10° 19:50:16 10° 186° (S) 3,891 11.1 -39.7°
Enters shadow 19:51:39 - 181° (S) 4,201 11.2 -39.9°
